Weather History for Randolph AFB, TX

Change the Weather History Date:

Wednesday, March 13, 2013

  Actual Average Record
Temperature  
Mean Temperature 58 °F -  
Max Temperature 76 °F 68 °F 84 °F (1997)
Min Temperature 42 °F 50 °F 36 °F (2014)
Degree Days  
Heating Degree Days 6    
Growing Degree Days 8 (Base 50)    
Moisture  
Dew Point 39 °F    
Average Humidity 53    
Maximum Humidity 92    
Minimum Humidity 24    
Precipitation  
Precipitation 0.00 in - - ()
Sea Level Pressure  
Sea Level Pressure 30.33 in    
Wind  
Wind Speed 6 mph (East)    
Max Wind Speed 12 mph    
Max Gust Speed -    
Visibility 10 miles    
Events      
Averages and records for this station are not official NWS values.
T = Trace of Precipitation, MM = Missing Value Source: NWS Daily Summary

Daily Weather History Graph

Daily Weather History Graph

Search for Another Location

Airport:

Trip Planner

Search our weather history database for the weather conditions in past years. The results will help you decide how hot, cold, wet, or windy it might be!

Date:

Astronomy

Mar. 13, 2013 Rise Set
Actual Time 7:44 AM CDT 7:40 PM CDT
Civil Twilight 7:21 AM CDT 8:04 PM CDT
Nautical Twilight 6:53 AM CDT 8:31 PM CDT
Astronomical Twilight 6:25 AM CDT 8:59 PM CDT
Moon 8:37 AM CDT (3/13) 9:44 PM CDT (3/13)
Length of Visible Light 12h 43m
Length of Day
11h 55m
Waxing Crescent, 4% of the Moon is Illuminated
Mar 13
Waxing Crescent
Mar 19
First Quarter
Mar 27
Full
Apr 2
Last Quarter
Apr 10
New

Hourly Weather History & Observations

Time (CDT) Temp. Windchill Dew Point Humidity Pressure Visibility Wind Dir Wind Speed Gust Speed Precip Events Conditions
12:58 AM 52.7 °F - 39.6 °F 61% 30.25 in 10.0 mi NNW 4.6 mph - N/A   Clear
1:58 AM 51.8 °F - 39.7 °F 63% 30.27 in 10.0 mi ENE 2.3 mph - N/A   Clear
2:58 AM 51.4 °F - 39.2 °F 63% 30.28 in 10.0 mi NNE 4.6 mph - N/A   Clear
3:58 AM 47.8 °F - 39.7 °F 74% 30.28 in 10.0 mi Calm Calm - N/A   Clear
4:58 AM 44.2 °F 42.7 °F 40.6 °F 87% 30.30 in 10.0 mi North 3.5 mph - N/A   Clear
5:58 AM 43.2 °F 39.7 °F 39.9 °F 88% 30.32 in 10.0 mi NNW 5.8 mph - N/A   Clear
6:58 AM 43.2 °F 40.5 °F 39.7 °F 88% 30.34 in 10.0 mi North 4.6 mph - N/A   Clear
7:58 AM 42.6 °F 38.4 °F 40.5 °F 92% 30.37 in 10.0 mi NNW 6.9 mph - N/A   Clear
8:58 AM 48.6 °F - 44.6 °F 86% 30.39 in 10.0 mi North 4.6 mph - N/A   Clear
9:58 AM 57.6 °F - 46.6 °F 67% 30.42 in 10.0 mi NE 8.1 mph - N/A   Clear
10:58 AM 63.1 °F - 45.9 °F 53% 30.43 in 10.0 mi East 6.9 mph - N/A   Clear
11:58 AM 67.5 °F - 40.1 °F 37% 30.42 in 10.0 mi East 9.2 mph - N/A   Clear
12:58 PM 70.0 °F - 39.2 °F 33% 30.40 in 10.0 mi SE 11.5 mph - N/A   Clear
1:58 PM 72.1 °F - 39.7 °F 31% 30.36 in 10.0 mi East 8.1 mph - N/A   Clear
2:58 PM 74.5 °F - 36.5 °F 25% 30.33 in 10.0 mi Variable 4.6 mph - N/A   Clear
3:58 PM 74.8 °F - 36.7 °F 25% 30.30 in 10.0 mi Variable 4.6 mph - N/A   Clear
4:58 PM 75.9 °F - 36.7 °F 24% 30.29 in 10.0 mi South 9.2 mph - N/A   Clear
5:58 PM 75.7 °F - 36.9 °F 24% 30.29 in 10.0 mi SSE 9.2 mph - N/A   Clear
6:58 PM 72.9 °F - 37.0 °F 27% 30.29 in 10.0 mi SE 8.1 mph - N/A   Clear
7:58 PM 63.1 °F - 37.6 °F 39% 30.29 in 10.0 mi SE 8.1 mph - N/A   Clear
8:58 PM 59.2 °F - 37.8 °F 45% 30.30 in 10.0 mi SE 8.1 mph - N/A   Clear
9:58 PM 62.1 °F - 37.6 °F 40% 30.32 in 10.0 mi SSE 10.4 mph - N/A   Clear
10:58 PM 54.5 °F - 36.0 °F 50% 30.36 in 10.0 mi SSE 8.1 mph - N/A   Clear
11:58 PM 55.6 °F - 35.1 °F 46% 30.36 in 10.0 mi South 8.1 mph - N/A   Clear